Date String (YYYY-MM-DD hh:mm:ss) UTC,Instrument flags,Ambient pressure (hPa),Sample flow (lpm),Bypass flow (lpm),Sample temperature (°C),Ambient temperature (°C),ASC tube jacket temperature (°C),LED temperature (°C),Box temperature (°C),Sample RH (%),Span deviation,Mass concentration (μg/m³),Mass concentration (μg/m³),Mass concentration (μg/m³)
DateTimeUTC,F1_M11,P_M11,Q1_M11,Q2_M11,T1_M11,T2_M11,T3_M11,T4_M11,T5_M11,U1_M11,ZSPAN_M11,X2_M11,X0_M11,X1_M11
2022-02-06 12:00:00,,0831.9,5.00,0.00,22.6,22.8,00.0,31.4,24.5,11.8,0000.0,0001.36,0003.68,0000.85
2022-02-06 12:01:00,,0832.0,5.00,0.00,22.6,22.6,00.0,31.4,24.5,11.8,0000.0,0001.31,0003.59,0000.85
2022-02-06 12:02:00,,0832.0,5.00,0.00,22.6,22.4,00.0,31.4,24.4,11.8,0000.0,0001.33,0004.24,0000.85
2022-02-06 12:03:00,,0832.1,5.00,0.00,22.6,22.3,00.0,31.4,24.4,11.8,0000.0,0001.34,0004.67,0000.84
2022-02-06 12:04:00,,0832.0,5.01,0.00,22.6,22.2,00.0,31.4,24.4,11.7,0000.0,0001.32,0004.65,0000.84
2022-02-06 12:05:00,,0832.0,4.99,0.00,22.5,22.1,00.0,31.4,24.3,11.8,0000.0,0001.32,0004.64,0000.85
2022-02-06 12:06:00,,0831.9,5.01,0.00,22.5,22.0,00.0,31.4,24.2,11.8,0000.0,0001.33,0004.22,0000.85
2022-02-06 12:07:00,,0832.0,5.00,0.00,22.5,22.0,00.0,31.4,24.2,11.8,0000.0,0001.33,0004.09,0000.85
2022-02-06 12:08:00,,0832.0,4.98,0.00,22.5,21.9,00.0,31.4,24.2,11.8,0000.0,0001.29,0003.93,0000.85
2022-02-06 12:09:00,,0832.0,5.01,0.00,22.5,21.8,00.0,31.4,24.2,11.9,0000.0,0001.26,0003.67,0000.85
2022-02-06 12:10:00,,0832.0,5.01,0.00,22.4,21.8,00.0,31.4,24.1,11.9,0000.0,0001.25,0003.62,0000.85
2022-02-06 12:11:00,,0832.1,5.00,0.00,22.4,21.8,00.0,31.4,24.1,11.9,0000.0,0001.23,0003.39,0000.85
2022-02-06 12:12:00,,0832.1,5.00,0.00,22.4,21.7,00.0,31.4,24.1,11.9,0000.0,0001.22,0003.17,0000.84
2022-02-06 12:13:00,,0832.1,5.00,0.00,22.4,21.7,00.0,31.4,24.1,11.9,0000.0,0001.17,0002.53,0000.84
2022-02-06 12:14:00,,0832.1,5.00,0.00,22.4,21.7,00.0,31.4,24.1,12.0,0000.0,0001.13,0001.86,0000.85
2022-02-06 12:15:00,,0832.1,5.00,0.00,22.4,21.7,00.0,31.4,24.1,12.0,0000.0,0001.16,0001.94,0000.85
2022-02-06 12:16:00,,0832.2,4.99,0.00,22.4,21.6,00.0,31.4,24.1,12.0,0000.0,0001.23,0002.13,0000.86
2022-02-06 12:17:00,,0832.2,5.01,0.00,22.3,21.6,00.0,31.4,24.1,12.0,0000.0,0001.25,0002.21,0000.87
2022-02-06 12:18:00,,0832.2,5.00,0.00,22.3,21.6,00.0,31.4,24.1,12.0,0000.0,0001.26,0002.31,0000.87
2022-02-06 12:19:00,,0832.3,4.99,0.00,22.3,21.6,00.0,31.4,24.0,12.0,0000.0,0001.28,0002.36,0000.88
2022-02-06 12:20:00,,0832.3,5.01,0.00,22.3,21.6,00.0,31.3,24.0,12.0,0000.0,0001.26,0002.27,0000.88
2022-02-06 12:21:00,,0832.3,4.99,0.00,22.3,21.6,00.0,31.3,24.0,12.1,0000.0,0001.26,0002.26,0000.89
2022-02-06 12:22:00,,0832.3,5.02,0.00,22.3,21.6,00.0,31.3,24.0,12.1,0000.0,0001.30,0002.98,0000.89
2022-02-06 12:23:00,,0832.4,4.98,0.00,22.3,21.6,00.0,31.3,24.0,12.1,0000.0,0001.32,0003.37,0000.90
2022-02-06 12:24:00,,0832.3,5.01,0.00,22.3,21.6,00.0,31.3,24.0,12.1,0000.0,0001.34,0003.52,0000.91
2022-02-06 12:25:00,,0832.4,4.99,0.00,22.3,21.6,00.0,31.3,24.0,12.1,0000.0,0001.37,0003.69,0000.91
2022-02-06 12:26:00,,0832.3,5.01,0.00,22.3,21.6,00.0,31.3,24.0,12.1,0000.0,0001.42,0003.92,0000.92
2022-02-06 12:27:00,,0832.3,5.01,0.00,22.3,21.6,00.0,31.3,24.0,12.1,0000.0,0001.41,0003.83,0000.92
2022-02-06 12:28:00,,0832.2,4.99,0.00,22.3,21.7,00.0,31.3,24.0,12.1,0000.0,0001.43,0003.86,0000.92
2022-02-06 12:29:00,,0832.2,5.00,0.00,22.3,22.2,00.0,31.3,24.1,12.1,0000.0,0001.42,0003.77,0000.93
2022-02-06 12:30:00,,0832.2,5.01,0.00,22.5,23.0,00.0,31.4,24.4,12.0,0000.0,0001.44,0003.86,0000.94
2022-02-06 12:31:00,,0832.3,4.98,0.00,22.6,23.1,00.0,31.4,24.5,11.9,0000.0,0001.45,0003.94,0000.95
2022-02-06 12:32:00,,0832.3,5.00,0.00,22.6,22.9,00.0,31.4,24.5,11.9,0000.0,0001.47,0004.23,0000.95
2022-02-06 12:33:00,,0832.3,5.01,0.00,22.6,22.7,00.0,31.4,24.4,11.8,0000.0,0001.43,0003.68,0000.96
2022-02-06 12:34:00,,0832.2,5.00,0.00,22.5,22.4,00.0,31.4,24.3,11.8,0000.0,0001.46,0003.56,0000.96
2022-02-06 12:35:00,,0832.2,4.99,0.00,22.5,22.2,00.0,31.4,24.2,11.9,0000.0,0001.51,0003.63,0000.96
2022-02-06 12:36:00,,0832.2,5.00,0.00,22.5,22.1,00.0,31.4,24.1,11.8,0000.0,0001.49,0003.46,0000.96
2022-02-06 12:37:00,,0832.2,5.02,0.00,22.4,22.0,00.0,31.4,24.1,11.8,0000.0,0001.43,0003.20,0000.97
2022-02-06 12:38:00,,0832.3,4.98,0.00,22.4,21.9,00.0,31.4,24.1,11.8,0000.0,0001.44,0003.17,0000.98
2022-02-06 12:39:00,,0832.3,5.01,0.00,22.4,21.8,00.0,31.4,24.1,11.9,0000.0,0001.42,0003.70,0000.99
2022-02-06 12:40:00,,0832.3,4.99,0.00,22.3,21.7,00.0,31.4,24.0,12.0,0000.0,0001.42,0003.80,0000.99
2022-02-06 12:41:00,,0832.3,5.01,0.00,22.3,21.6,00.0,31.4,24.0,12.1,0000.0,0001.40,0003.74,0001.00
2022-02-06 12:42:00,,0832.3,4.99,0.00,22.3,21.6,00.0,31.4,24.0,12.2,0000.0,0001.44,0003.83,0001.01
2022-02-06 12:43:00,,0832.3,5.00,0.00,22.3,21.6,00.0,31.3,24.0,12.2,0000.0,0001.49,0003.80,0001.01
2022-02-06 12:44:00,,0832.3,4.99,0.00,22.3,21.6,00.0,31.3,23.9,12.2,0000.0,0001.52,0003.64,0001.02
2022-02-06 12:45:00,,0832.3,5.00,0.00,22.2,21.5,00.0,31.3,23.9,12.2,0000.0,0001.56,0004.41,0001.03
2022-02-06 12:46:00,,0832.2,5.02,0.00,22.2,21.5,00.0,31.3,23.9,12.3,0000.0,0001.51,0004.38,0001.03
2022-02-06 12:47:00,,0832.3,4.99,0.00,22.2,21.5,00.0,31.3,23.9,12.3,0000.0,0001.53,0004.40,0001.04
2022-02-06 12:48:00,,0832.3,5.01,0.00,22.2,21.5,00.0,31.3,23.9,12.3,0000.0,0001.56,0004.43,0001.05
2022-02-06 12:49:00,,0832.3,4.99,0.00,22.1,21.4,00.0,31.3,23.8,12.3,0000.0,0001.51,0004.31,0001.05
2022-02-06 12:50:00,,0832.3,5.01,0.00,22.1,21.3,00.0,31.2,23.8,12.3,0000.0,0001.53,0003.69,0001.05
2022-02-06 12:51:00,,0832.4,4.99,0.00,22.1,21.3,00.0,31.2,23.7,12.3,0000.0,0001.57,0003.61,0001.06
2022-02-06 12:52:00,,0832.4,5.00,0.00,22.1,21.7,00.0,31.2,23.8,12.3,0000.0,0001.63,0003.71,0001.07
2022-02-06 12:53:00,,0832.4,5.01,0.00,22.2,22.4,00.0,31.3,24.1,12.2,0000.0,0001.59,0003.58,0001.06
2022-02-06 12:54:00,,0832.4,5.00,0.00,22.4,23.0,00.0,31.3,24.3,12.1,0000.0,0001.55,0003.44,0001.07
2022-02-06 12:55:00,,0832.3,4.99,0.00,22.5,22.9,00.0,31.3,24.3,12.0,0000.0,0001.54,0003.55,0001.06
2022-02-06 12:56:00,,0832.4,5.00,0.00,22.5,22.7,00.0,31.3,24.3,12.0,0000.0,0001.56,0002.82,0001.05
2022-02-06 12:57:00,,0832.4,5.01,0.00,22.5,22.5,00.0,31.3,24.3,12.0,0000.0,0001.57,0002.76,0001.06
2022-02-06 12:58:00,,0832.4,5.00,0.00,22.4,22.3,00.0,31.4,24.2,12.0,0000.0,0001.59,0002.85,0001.06
2022-02-06 12:59:00,,0832.4,4.99,0.00,22.4,22.0,00.0,31.3,24.1,12.2,0000.0,0001.61,0002.89,0001.07
